{"data":{"norad_id":51790,"epoch":"2026-09-20T04:12:04.091040Z","epoch_age_seconds":79711,"freshness":"FRESH","line1":"1 51790U 22017Y   26263.17504735  .00009132  00000+0  55529-3 0  9998","line2":"2 51790  53.2121 195.1621 0003018  89.8380 270.2959 15.11134091253348","mean_motion":15.11134091,"eccentricity":0.0003018,"inclination_deg":53.2121,"raan_deg":195.1621,"arg_perigee_deg":89.838,"mean_anomaly_deg":270.2959,"bstar":0.00055529,"rev_number":25334,"period_min":95.292668504823,"perigee_km":530.65444038001,"apogee_km":534.82584582358,"semimajor_km":6910.8771431018,"source":"CELESTRAK","updated_at":"2026-09-20T09:00:39.940502Z"}}